User: anonymous
Location: Unspecified
(0.0000°N, 0.0000°E)
Time: 14:27:06
(UTC+02:00)
Language:

ARIANE 5 R/B - Orbit

View from above orbital plane
View from above orbital plane
View from above satellite
View from above satellite

Ground track
Ground track

The orbit data is extracted from the following two-line orbital elements,

1 27387U 02009B   14274.97964118  .00000135  00000-0  61071-4 0  2879
2 27387 098.3269 234.0238 0032138 207.9052 193.9548 14.35740885659598
Epoch (UTC): 01 October 2014 23:30:40
Eccentricity: 0.0032138
inclination: 98.3269°
perigee height: 749 km
apogee height: 795 km
right ascension of ascending node: 234.0238°
argument of perigee: 207.9052°
revolutions per day: 14.35740885
mean anomaly at epoch: 193.9548°
orbit number at epoch: 65959

The dashed part of the orbit path shows where the satellite is in the earth's shadow,  

DLR